Regional Weather Roundup
Issued by NWS

Home | Current Version | Previous Version | Graphics & Text | Print | Product List | Glossary On
Versions: 1 2 3 4 5 6 7 8 9 10 11 12 13 14 15 16 17 18 19 20 21 22 23 24 25 26 27 28 29 30 31 32 33 34 35 36 37 38 39 40 41 42 43 44 45 46 47 48 49 50
000
ASUS43 KLOT 210206
RWRIL

ILLINOIS REGIONAL WEATHER ROUNDUP
NATIONAL WEATHER SERVICE CHICAGO/ROMEOVILLE IL
800 PM CST THU NOV 20 2014

NOTE: "FAIR" INDICATES FEW OR NO CLOUDS BELOW 12,000 FEET WITH NO
SIGNIFICANT WEATHER AND/OR OBSTRUCTIONS TO VISIBILITY.

* THESE STATIONS ARE NOT UNDER NWS QUALITY CONTROL. THEY ALSO MAY NOT
  REPORT WEATHER SUCH AS PRECIPITATION OR FOG.

ILZ001-002-007-009-015-016-024-210300-
NORTHWEST ILLINOIS

CITY           SKY/WX    TMP DP  RH WIND       PRES   REMARKS
MOLINE         CLEAR     20   8  60 NW7       30.28R WCI  11
STERLING*      FAIR      16   7  67 NW5       30.26R WCI   9
SAVANNA*       CLEAR     18   7  60 NW3       30.26R
$$

ILZ003-004-008-010-011-017-018-210300-
NORTH CENTRAL ILLINOIS

CITY           SKY/WX    TMP DP  RH WIND       PRES   REMARKS
ROCKFORD       CLEAR     16   4  59 NW10      30.25R WCI   4
FREEPORT*      CLEAR     13   4  65 NW7       30.25R WCI   3
ROCHELLE*      CLEAR     13   5  70 W6        30.24R WCI   4
DE KALB*       CLEAR     15   4  62 NW12      30.22R WCI   2
PERU*          CLEAR     19   8  61 NW9       30.26R WCI   8
$$

ILZ005-006-012>014-019>023-210300-
NORTHEAST ILLINOIS

CITY           SKY/WX    TMP DP  RH WIND       PRES   REMARKS
CHICAGO-OHARE  CLEAR     20   3  48 NW14G22   30.21R WCI   7
CHICAGO-MIDWAY CLEAR     22   3  44 NW15      30.22R WCI   9
AURORA         CLEAR     13   3  64 NW7       30.23R WCI   3
LANSING*       CLEAR     22   6  49 NW9       30.21R WCI  12
JOLIET*        FAIR      19   5  55 NW7       30.24R WCI   9
WAUKEGAN       CLEAR     17   5  59 W6        30.19R WCI   9
DUPAGE AIRPORT CLEAR     17   2  51 W10       30.21R WCI   5
KANKAKEE*      CLEAR     22   8  56 W9        30.24R WCI  11
WHEELING       CLEAR     20   4  50 W12       30.23R WCI   8
MORRIS*        CLEAR     15   7  68 NW10      30.24R WCI   3
ROMEOVILLE*    CLEAR     18   6  58 NW10      30.23R WCI   6
NORTHERLY ISL    N/A     23   6  48 W12         N/A  WCI  12
$$

LMZ740>746-210300-
SOUTHERN LAKE MICHIGAN

STATION/POSITION SKY/WX   TEMP    WIND        PRES    VSBY  WAVE
                          AIR SEA DIR/SP/G                  HT/PER
                          (F)     (DEG/KT/KT) (MB)    (MI)  (FT/S)
SOUTHERN BUOY              25 43  290/ 23/ 27 1022.0R         6/ 6
WAUKEGAN HARBOR            20     290/ 13/ 18   N/A
HARRISON CRIB              22     290/ 21/ 25   N/A
BURNHAM HARBOR             23     280/ 10/ 16   N/A
CALUMET HARBOR             22     270/  7/ 13 1021.6R
MICHIGAN CITY              25     280/ 24/ 29   N/A
$$

ILZ025>027-034>036-040-047-049-050-058-095>099-210300-
WEST-CENTRAL ILLINOIS

CITY           SKY/WX    TMP DP  RH WIND       PRES   REMARKS
QUINCY         CLEAR     24  11  57 N5        30.27R WCI  18
GALESBURG*     CLEAR     15   8  73 W5        30.27R WCI   7
MACOMB*        CLEAR     18   9  68 N6        30.30R WCI   9
JACKSONVILLE*  CLEAR     22  11  62 N5        30.28R WCI  16
PITTSFIELD*    CLEAR     24  14  66 CALM      30.29R
$$

ILZ028>032-037-038-041>044-048-051>054-059>061-210300-
CENTRAL ILLINOIS

CITY           SKY/WX    TMP DP  RH WIND       PRES   REMARKS
PONTIAC        CLEAR     20   8  62 NW7       30.26R WCI  11
BLOOMINGTON    CLEAR     23  10  57 NW10      30.25R WCI  12
DECATUR        CLEAR     26  11  52 NW7       30.26R WCI  18
PEORIA         CLEAR     23   8  52 NW3       30.28R
LACON*         CLEAR     19   7  60 NW6       30.27R WCI  10
LINCOLN*       CLEAR     25  11  57 NW5       30.29R WCI  19
SPRINGFIELD    CLEAR     23  10  57 NW7       30.28R WCI  15
TAYLORVILLE    CLEAR     23  16  74 W5        30.27R WCI  17
$$

ILZ033-039-045-046-055>057-062-063-210300-
EAST-CENTRAL ILLINOIS

CITY           SKY/WX    TMP DP  RH WIND       PRES   REMARKS
CHAMPAIGN      CLEAR     19  10  68 NW8       30.25R WCI   9
DANVILLE*      CLEAR     22  10  61 W6        30.21R WCI  14
RANTOUL*       CLEAR     23  10  59 NW7       30.25R WCI  14
MATTOON        CLEAR     25  16  68 W5        30.25R WCI  19
PARIS*         CLEAR     22  17  82 W5        30.26R WCI  16
$$

ILZ079-100>102-210300-
SOUTHWEST ILLINOIS

CITY           SKY/WX    TMP DP  RH WIND       PRES   REMARKS
ALTON          CLEAR     27  16  63 W7        30.29R WCI  19
BELLEVILLE     CLEAR     26  20  76 CALM      30.28R
CAHOKIA*       CLEAR     28  20  71 CALM      30.29R
SPARTA*        CLEAR     27  19  72 CALM      30.29R
$$

ILZ064>066-069>071-074>076-080>082-084>086-088>090-092>094-210300-
SOUTH-CENTRAL ILLINOIS

CITY           SKY/WX    TMP DP  RH WIND       PRES   REMARKS
CARBONDALE     CLEAR     28  17  63 CALM      30.28R
CAIRO*         CLEAR     30  24  79 CALM      30.27R
EFFINGHAM*     CLEAR     22  16  75 CALM      30.27R
MARION         CLEAR     27  19  74 CALM      30.29R
MT. VERNON     CLEAR     21  16  79 CALM      30.28R
CENTRALIA*     CLEAR     25  20  83 CALM      30.28R
SALEM*           N/A     27  22  82 CALM      30.28R
METROPOLIS*    CLEAR     28  24  83 CALM      30.26S
$$

ILZ067-068-072-073-078-083-087-091-210300-
SOUTHEAST ILLINOIS

CITY           SKY/WX    TMP DP  RH WIND       PRES   REMARKS
LAWRENCEVILLE  CLEAR     25  16  68 CALM      30.28R
FLORA*         CLEAR     23  20  91 CALM      30.28R
FAIRFIELD*     CLEAR     26  18  72 CALM      30.27S
HARRISBURG*    CLEAR     26  21  82 CALM      30.30R
ROBINSON*      CLEAR     22  18  83 W6        30.28R WCI  15
CARMI*         CLEAR     26  22  84 N3        30.29R
$$

ABBREVIATIONS USED IN REMARKS
   TC - TEMPERATURE IN CELSIUS
  WCI - WIND CHILL INDEX
   HX - HEAT INDEX
  VSB - VISIBILITY
$$



USA.gov is the U.S. government's official web portal to all federal, state and local government web resources and services.